sat.trackr.live / text

‹ back to catalog

STARLINK-35828

NORAD 66351 · 2025-254D

PAYLOAD ACTIVE UNKNOWN

§ Identity

Operator
Country
US
Launch date
2025-11-06
Launch site
AFWTR
Launch vehicle
Mass (kg)
RCS (m²)

Purposes: comms

External: N2YO · Heavens-Above · Gunter

§ Orbital elements

Epoch: 2026-05-24T17:38:35.457504Z

Period
94.01 min
Inclination
53.1592°
Eccentricity
0.0000913
Mean motion
15.31713382 rev/d
Perigee alt
470.1 km
Apogee alt
471.3 km
Semi-major
6,848.8 km
B*
4.6267e-4
RAAN
238.8720°
Arg perigee
71.8964°
Mean anomaly
288.2137°
Rev number
3,062

§ Raw data

STARLINK-358281 66351U 25254D   26144.73513261  .00014025  00000+0  46267-3 0  99932 66351  53.1592 238.8720 0000913  71.8964 288.2137 15.31713382 30622

JSON: /api/v1/satellites/66351 · /tle

For live sub-satellite position, see the globe view (requires WebGL).

§ Visibility from observer

Set your observer location to see the next 7 days of passes ≥ 10°. The values pass through the URL so the page stays shareable.

No JS? Fill the form by hand. The geolocation button needs JavaScript.